Hourly Data Report for January 13, 2018

All times are specified in Local Standard Time (LST). Add 1 hour to adjust for Daylight Saving Time where and when it is observed.

QUESNEL
BRITISH COLUMBIA

53°01'34.000" N
122°30'37.000" W
545.00 m
1096629
71192
YQZ

Download Data

Hourly Data (January 2018)
Hourly Data Report for January 13, 2018
Temp Definition
°C
Dew Point Temp Definition
°C
Rel Hum Definition
%
Wind Dir Definition
10's deg

Wind Spd Definition
km/h
Visibility Definition
km
Stn Press Definition
kPa
Hmdx Definition


Wind Chill Definition


Weather Definition


TIME
00:00 Legend Double Dagger -14.8 -17.2 82   0 8.1 96.32     Snow
01:00 Legend Double Dagger -14.7 -17.0 83   0 4.0 96.27     Snow
02:00 Legend Double Dagger -14.5 -16.8 83   0 8.1 96.31     Snow
03:00 Legend Double Dagger -14.2 -16.5 83   0 3.6 96.38     Snow
04:00 Legend Double Dagger -13.8 -16.1 83   0 4.8 96.37     Snow
05:00 Legend Double Dagger -13.4 -15.7 83 27 5 16.1 96.40   -17 LegendNANA
06:00 Legend Double Dagger -13.2 -15.5 83   0 16.1 96.39     LegendNANA
07:00 Legend Double Dagger -12.9 -15.2 83   0 16.1 96.38     LegendNANA
08:00 Legend Double Dagger -12.3 -14.4 85   0 12.9 96.44     LegendNANA
09:00 Legend Double Dagger -12.1 -14.1 85 LegendMM 4 14.5 96.48   -15 LegendNANA
10:00 Legend Double Dagger -11.5 -13.7 84   0 14.5 96.49     LegendNANA
11:00 Legend Double Dagger -10.7 -12.9 84 LegendMM 4 9.7 96.51   -13 Fog
12:00 Legend Double Dagger -9.6 -12.3 81 LegendMM 4 11.3 96.47   -12 LegendNANA
13:00 Legend Double Dagger -7.4 -10.3 80 LegendMM 4 11.3 96.44   -9 LegendNANA
14:00 Legend Double Dagger -6.8 -9.2 83 23 4 16.1 96.45   -9 LegendNANA
15:00 Legend Double Dagger -5.6 -8.0 83 19 4 16.1 96.43   -7 LegendNANA
16:00 Legend Double Dagger -4.6 -6.3 88 LegendMM 4 14.5 96.48   -6 Snow
17:00 Legend Double Dagger -4.4 -5.5 92 16 4 9.7 96.45   -6 Snow
18:00 Legend Double Dagger -4.4 -5.3 94 15 5 16.1 96.43   -7 Snow
19:00 Legend Double Dagger -4.7 -5.5 94   0 16.1 96.46     LegendNANA
20:00 Legend Double Dagger -5.7 -6.8 92 18 8 16.1 96.45   -9 LegendNANA
21:00 Legend Double Dagger -5.8 -6.8 93 18 5 16.1 96.48   -8 LegendNANA
22:00 Legend Double Dagger -5.8 -6.9 92   0 16.1 96.55     LegendNANA
23:00 Legend Double Dagger -6.9 -7.7 94 17 5 16.1 96.55   -9 LegendNANA

Notes on Data Quality.

Legend

  • E = Estimated
  • M = Missing
  • NA = Not Available
  • ‡ = Partner data that is not subject to review by the National Climate Archives
Date modified: